Location: Cannifist
(18.2333°N, 63.0167°W)
Time: 02:34:14
(UTC+00:00)

ISS - Visible Passes

Search period start: 18 June 2021 00:00
Search period end: 28 June 2021 00:00
Orbit: 417 x 422 km, 51.6° (Epoch: 17 June)

Date Brightness Start Highest point End Pass type
(mag) Time Alt. Az. Time Alt. Az. Time Alt. Az.
18 Jun -1.3 09:03:09 10° S 09:05:35 19° SE 09:08:00 10° ENE visible
20 Jun -3.8 09:03:59 10° SW 09:07:20 82° NW 09:10:41 10° NE visible
21 Jun -2.8 08:18:39 27° S 08:19:56 41° SE 08:23:07 10° NE visible
22 Jun -1.2 07:33:29 17° ESE 07:33:29 17° ESE 07:35:03 10° ENE visible
22 Jun -1.8 09:06:55 10° W 09:09:15 17° NW 09:11:35 10° N visible
23 Jun -2.9 08:21:12 32° WNW 08:21:46 34° NW 08:24:51 10° NNE visible
24 Jun -1.8 07:35:52 29° NNE 07:35:52 29° NNE 07:37:40 10° NE visible
26 Jun -0.9 07:37:55 13° NNW 07:37:55 13° NNW 07:38:32 10° N visible
